Tracking 33197 objects as of 18-Feb-2026
HD Live streaming from Space Station
objects crossing your sky now

SL-3 R/B

Track SL-3 R/B now!
10-day predictions


NORAD ID: 8800
Int'l Code: 1976-032B
Perigee: 796.8 km
Apogee: 931.7 km
Inclination: 81.3 °
Period: 102.1 minutes
Semi major axis: 7235 km
RCS: 7.6301 m2 (large)
Launch date: April 7, 1976
Source: Commonwealth of Independent States (former USSR) (CIS)
Launch site: PLESETSK MISSILE AND SPACE COMPLEX (PKMTR)

Note: This is a ROCKET BODY
Your satellite tracking list
Your tracking list is empty




NASA's NSSDC Master Catalog

Two Line Element Set (TLE):
1 08800U 76032B   26049.21752574  .00000121  00000-0  58453-4 0  9991
2 08800  81.2518  14.4645 0093232 212.8835 146.6516 14.10648547564504
Source of the keplerian elements: AFSPC